Dewpoint
57 51 49 48 49 48 43 42 30 37 32 29 27 28 20 25 28 33 35 37 38 40 41 43 46 47 44 46 48 52 54 47 47 41 42 52 60 65 67 68 68 69 69 69 70 70 70 71 71 70 70 70 70 70 69 69 68 67 67 67 66 65 65 65 65 65 68 68 68 68 67 66 65 65 65 65 66 65 65 65 64 64 64 63 63 64 64 64 65 65 64 64 64 65 65 65 65
56 52 48 49 48 45 41 39 34 32 32 27 26 28 24 32 40 36 38 39 39 41 42 44 51 52 51 52 53 53 51 55 56 53 56 59 65 67 68 68 68 68 69 69 70 70 70 70 71 71 70 70 70 69 69 68 68 67 67 66 66 66 65 64 66 69 69 68 68 68 67 66 66 65 65 65 66 65 64 64 64 64 64 64 64 63 62 63 63 64 64 64 64 64 64 64 64
55 49 45 47 47 44 44 41 35 30 27 22 25 26 35 40 40 41 41 42 42 43 44 45 49 48 48 50 51 49 46 55 55 56 56 61 64 66 67 68 68 69 69 69 69 69 69 70 71 71 70 70 70 69 69 68 68 67 67 67 66 66 65 66 68 69 69 69 68 67 67 66 65 64 63 66 65 65 64 65 64 64 64 64 63 63 63 63 63 63 64 63 64 64 64 64 65
47 51 46 47 42 46 39 39 35 32 29 26 23 26 38 41 41 42 42 43 43 43 44 43 45 47 51 50 52 55 55 54 56 56 57 60 62 66 67 68 69 69 69 69 69 69 69 70 70 71 70 70 69 69 69 68 68 67 67 67 66 67 68 70 70 69 69 68 67 66 66 66 65 65 65 64 64 64 65 65 64 64 63 63 63 63 64 64 64 64 64 63 63 64 64 64 65
43 50 50 47 43 41 40 37 34 30 32 27 22 25 39 42 41 42 41 41 43 43 43 43 45 46 50 51 51 51 52 56 55 58 56 58 65 66 67 68 68 68 68 68 68 68 69 69 70 70 70 69 69 69 69 68 68 67 67 66 67 67 70 70 70 70 68 68 68 68 67 66 65 65 64 63 63 64 64 64 64 64 63 63 63 63 63 64 64 63 64 63 62 63 64 64 64
45 45 55 47 41 46 43 35 35 35 36 30 23 26 39 42 41 40 41 41 42 42 42 43 45 45 52 54 55 53 56 51 55 58 57 59 66 66 67 67 68 68 67 67 67 67 68 69 70 70 70 69 69 69 69 68 68 67 66 66 67 67 70 70 70 70 68 68 69 67 66 66 66 63 64 64 63 63 63 64 63 62 62 63 63 63 64 64 64 64 63 63 63 63 64 64 64
44 45 49 48 46 45 39 35 35 36 37 28 26 28 38 40 38 40 38 39 37 34 40 44 51 50 51 53 54 57 57 57 56 57 57 62 66 67 67 67 67 66 66 66 66 67 68 69 69 70 70 69 68 68 68 68 67 67 66 66 67 69 70 70 70 70 69 69 68 66 67 66 65 65 64 63 63 63 64 64 64 64 64 64 63 63 63 63 64 63 63 63 62 62 63 63 63
50 43 45 40 40 42 39 36 38 37 36 23 25 34 37 36 38 36 36 31 31 35 38 41 43 46 47 55 50 56 59 58 58 58 59 64 66 66 66 66 66 66 66 66 66 67 69 68 69 69 69 69 68 68 68 67 67 66 66 66 71 70 70 70 70 70 69 69 67 67 67 66 65 64 64 64 64 64 64 64 64 64 63 62 63 63 63 63 63 63 63 63 62 62 62 63 62
48 44 49 44 40 42 39 38 39 39 38 30 26 34 43 36 36 33 34 35 35 35 37 40 39 42 46 54 54 56 58 57 57 59 61 66 66 66 66 66 65 65 65 65 66 66 67 67 68 69 69 69 69 68 68 67 66 66 66 66 68 70 70 70 70 70 70 69 67 67 67 66 65 64 64 64 64 64 63 63 63 63 63 63 63 63 63 63 63 64 63 63 62 62 62 62 61
46 43 40 41 41 38 38 39 38 39 36 27 27 30 36 36 34 33 34 33 31 35 34 39 39 44 49 53 54 56 56 56 56 58 63 66 66 66 66 66 66 65 65 65 66 66 66 69 67 67 68 68 68 69 68 67 66 66 66 67 67 67 70 69 69 70 70 69 67 67 67 66 65 65 65 64 64 63 63 62 63 62 63 64 63 62 62 63 63 63 63 63 63 62 62 61 60
41 47 47 40 38 37 37 38 40 41 39 29 24 27 32 33 31 34 37 34 35 33 37 38 41 50 54 55 53 58 59 56 56 57 62 65 66 66 66 66 66 66 65 65 65 65 66 66 68 66 67 67 68 69 69 68 66 66 66 67 67 68 70 69 69 69 69 69 67 67 66 66 66 66 65 65 65 64 63 63 63 63 63 63 63 63 63 63 63 62 63 63 63 62 62 61 60
40 43 44 39 38 38 39 39 40 41 42 33 24 28 27 27 31 33 32 33 37 36 35 34 34 51 53 54 53 57 59 56 56 58 61 63 65 66 66 66 66 65 65 65 65 65 65 66 66 67 66 66 67 68 68 68 68 67 67 67 67 68 69 69 69 69 69 69 68 67 67 67 66 66 65 66 66 65 63 63 63 63 62 63 63 63 63 63 62 63 63 63 63 62 62 61 60
42 44 42 39 39 40 41 39 40 43 41 34 27 28 29 27 27 32 32 34 38 36 36 33 36 42 47 51 54 58 57 56 58 58 60 60 65 66 66 66 66 65 65 65 65 65 64 64 65 66 65 65 65 66 67 67 68 67 67 68 68 68 69 69 69 69 69 69 68 67 67 67 66 65 65 66 66 66 64 65 65 62 62 63 62 62 62 63 63 63 63 63 62 62 62 61 61
44 45 43 39 41 40 39 39 40 38 37 33 31 31 31 27 28 30 33 37 39 36 38 37 40 54 53 54 54 55 57 59 59 60 59 63 66 66 65 65 65 65 64 65 65 65 64 64 64 64 64 64 64 65 65 66 67 67 67 67 68 68 69 69 69 69 69 69 68 68 68 67 66 65 66 66 66 66 65 64 65 63 62 62 63 63 62 63 63 63 63 63 62 62 62 62 62
42 47 43 40 39 39 40 38 39 38 38 35 31 30 32 36 33 31 32 34 34 36 39 37 41 38 38 53 51 56 58 59 60 60 61 65 66 66 65 65 64 64 64 64 65 64 64 63 64 63 62 63 63 63 62 64 65 66 67 67 67 67 68 68 68 68 68 68 68 67 67 67 66 66 66 66 66 65 64 63 64 65 62 62 62 63 63 62 62 63 63 63 64 63 63 64 63
46 46 43 39 38 38 39 39 40 38 38 36 32 34 34 35 36 35 35 38 39 40 37 36 42 35 41 51 53 57 59 60 60 59 62 64 65 65 64 64 64 63 63 64 64 64 64 63 63 62 61 62 61 61 61 61 64 64 65 66 66 67 67 67 67 67 67 67 66 66 66 65 65 65 64 64 64 64 64 61 63 64 64 62 62 63 62 62 63 63 63 63 64 64 64 64 64
48 46 38 39 38 38 40 39 39 36 39 36 34 33 31 33 36 37 38 40 35 35 47 48 41 53 53 53 55 58 59 60 59 59 62 63 64 64 64 63 63 62 63 63 63 64 63 63 63 63 62 61 61 61 60 60 62 64 64 64 65 66 66 66 66 64 64 64 64 63 64 66 65 65 64 62 62 62 61 60 62 64 65 64 64 63 62 62 63 63 63 64 64 64 65 65 64
44 40 39 38 39 39 41 39 39 40 33 32 34 32 33 33 34 36 35 35 36 39 45 48 58 58 58 58 59 59 59 59 59 58 60 62 63 63 64 64 63 62 62 62 63 63 63 63 63 63 62 61 61 61 61 61 61 63 63 64 65 65 65 64 65 66 66 66 63 64 65 65 65 64 63 64 61 61 60 60 61 64 65 64 65 65 64 64 63 64 64 64 64 64 64 60 58
41 41 40 38 40 41 43 41 40 38 38 36 34 34 34 31 33 35 32 32 35 36 40 53 55 57 58 59 59 59 59 58 58 57 58 61 62 62 63 64 63 63 62 62 62 63 63 63 63 62 62 62 61 60 61 61 61 61 62 62 63 64 66 65 66 66 66 65 66 66 65 65 65 64 63 62 61 60 60 60 61 63 64 63 64 65 64 64 63 63 64 64 64 64 60 57 55
42 41 39 39 42 41 41 41 40 39 38 37 35 34 33 33 30 35 29 31 34 34 42 48 53 55 56 57 58 58 58 58 58 57 57 60 61 63 63 63 63 63 63 63 62 63 63 62 62 62 62 62 61 61 60 61 61 61 61 62 63 64 65 65 66 66 66 66 65 66 66 65 65 64 63 63 63 60 60 59 61 62 62 62 63 63 64 64 64 64 64 64 63 60 56 55 55
42 40 40 40 42 41 41 42 41 40 39 38 37 33 33 34 33 29 29 32 31 32 37 45 49 56 57 58 58 58 58 57 57 57 57 58 60 62 63 64 63 63 64 64 63 63 63 63 62 62 62 62 61 61 60 60 60 61 61 61 62 64 64 64 65 65 66 65 65 65 65 65 64 63 62 62 62 60 59 60 60 61 61 60 61 61 59 59 61 58 59 60 58 57 56 55 55
41 39 40 40 41 40 41 40 40 39 40 39 36 32 32 34 34 31 28 27 27 28 30 39 46 58 58 58 58 58 57 57 57 57 57 58 59 60 61 62 63 63 64 64 64 63 63 63 63 62 62 62 62 61 61 60 60 61 61 61 62 63 63 64 64 65 65 65 65 64 64 64 64 63 63 62 62 61 60 60 60 60 61 61 61 61 59 60 60 60 60 60 60 59 58 56 54
39 40 40 40 40 39 40 40 40 39 39 38 38 38 35 33 33 33 29 29 29 30 31 33 44 58 58 59 58 57 57 57 57 56 57 57 58 59 60 61 62 63 64 64 64 64 64 63 63 63 62 61 62 61 61 61 60 60 61 61 61 62 63 63 64 64 64 64 65 64 63 63 64 64 63 62 62 61 61 61 61 61 61 61 61 60 58 59 61 60 60 60 60 59 57 56 55
41 39 42 45 41 39 40 40 41 40 39 38 39 39 37 35 32 32 30 30 31 31 33 32 44 58 59 58 58 58 57 57 57 57 57 58 58 58 59 60 61 63 63 64 64 64 63 63 63 63 63 62 62 61 61 61 60 60 61 61 61 61 62 62 63 63 63 63 64 64 62 63 63 64 64 63 62 61 61 61 62 61 61 61 61 60 58 58 59 59 59 59 59 57 56 56 55
48 47 49 47 47 45 43 42 41 41 40 39 39 38 38 34 33 33 31 31 32 33 38 40 52 58 58 58 58 58 57 57 57 57 57 58 58 58 58 59 59 60 62 63 64 64 64 64 63 63 63 62 62 61 61 61 60 60 60 60 61 60 61 62 62 62 62 62 63 63 62 62 62 63 63 63 63 62 61 61 61 61 61 61 61 60 59 58 58 57 57 57 57 57 56 56 55
50 48 49 49 48 46 45 42 42 41 40 39 38 37 37 38 36 36 36 36 35 36 41 45 54 57 58 58 58 58 58 57 57 57 57 58 58 58 58 58 58 58 60 62 63 64 64 64 63 62 63 62 62 61 61 61 60 59 59 59 60 59 61 61 61 62 62 62 62 63 63 62 62 62 62 63 63 62 61 61 61 61 61 61 61 60 59 58 57 57 56 56 56 56 56 56 55
50 49 49 48 47 45 42 41 41 41 41 40 39 38 37 38 37 35 37 37 38 37 41 48 53 56 57 57 58 58 58 58 58 58 58 57 58 57 57 58 57 57 58 60 62 63 63 63 63 61 62 62 62 61 60 60 60 60 59 59 59 59 60 61 61 62 62 62 62 62 63 62 62 62 62 62 62 61 61 61 60 60 60 60 61 60 60 58 57 57 57 57 56 56 56 56 56
46 46 45 44 44 44 43 43 42 41 41 40 39 38 38 37 37 36 37 38 37 37 36 45 49 52 55 56 57 57 58 58 58 58 58 58 57 57 57 57 57 57 57 58 60 62 62 62 62 62 61 61 61 61 60 60 60 60 59 59 59 59 59 60 60 61 61 61 61 61 62 63 61 62 63 62 62 62 61 60 60 59 60 60 60 60 59 58 57 57 57 57 57 57 56 56 55
46 45 44 44 44 44 45 44 44 40 40 39 38 36 35 36 35 36 37 38 37 36 36 36 41 48 51 53 56 57 57 57 58 58 57 58 58 58 57 57 57 57 57 58 58 60 61 61 61 61 61 60 60 60 60 60 59 60 59 59 59 59 59 59 60 60 61 61 61 61 61 62 61 61 62 62 61 62 61 60 60 59 60 59 59 59 59 58 57 56 56 56 56 55 55 55 54
47 45 44 43 43 43 44 43 41 40 40 37 37 35 36 36 35 36 37 37 37 36 35 35 35 37 47 50 52 55 56 57 57 57 57 58 58 58 57 57 58 57 57 57 58 58 59 60 60 61 60 60 60 60 60 60 59 59 59 59 59 59 59 59 59 60 60 60 60 60 61 61 61 61 61 61 62 62 61 60 60 60 59 59 58 58 58 57 57 56 56 55 55 55 55 55 55
45 44 44 41 39 41 42 43 41 42 41 41 37 35 36 37 36 36 36 36 36 36 36 36 36 35 35 46 51 52 54 56 57 57 57 57 58 58 58 58 58 58 58 58 58 58 59 59 60 60 59 59 59 60 60 60 59 59 59 59 59 59 59 59 59 60 60 60 60 60 60 61 61 61 60 60 61 61 61 60 60 60 59 59 58 58 58 57 57 56 56 55 55 55 55 55 55
44 43 42 39 42 40 41 42 40 41 40 40 36 36 37 37 38 37 35 35 35 35 35 35 36 36 35 35 44 50 51 53 55 56 57 57 57 58 58 58 58 58 58 58 58 58 58 59 59 59 59 59 59 59 59 60 59 59 59 58 59 59 59 59 59 59 59 59 59 59 59 60 60 61 60 59 60 60 60 60 60 60 59 59 59 58 57 57 57 56 56 56 56 56 55 55 55
43 43 38 41 41 41 41 42 42 41 40 41 38 37 36 36 38 38 37 35 35 35 35 35 35 36 36 35 35 41 47 50 52 53 55 57 57 57 58 59 59 59 59 59 58 58 58 59 59 59 59 59 59 59 59 59 59 59 59 59 59 58 59 59 59 59 59 59 59 59 59 59 59 60 60 60 59 59 59 59 60 59 58 58 58 58 58 58 57 57 56 56 56 56 55 55 55
42 43 40 40 41 41 40 41 42 42 40 39 39 37 37 36 36 37 38 38 37 35 35 35 35 35 35 36 35 35 38 44 48 50 51 55 57 57 57 57 59 59 59 59 59 59 58 58 59 59 59 59 59 59 59 59 59 59 59 59 58 58 58 59 59 59 59 59 59 58 58 59 59 59 60 60 59 59 58 58 58 58 58 58 58 58 58 57 57 57 57 56 56 56 56 55 55
40 41 40 38 38 41 40 38 39 42 41 40 40 39 38 38 38 37 37 37 37 37 36 36 36 36 36 35 34 34 35 37 41 47 50 52 55 57 57 57 58 59 59 59 59 59 59 59 59 58 58 59 59 59 59 59 59 59 59 58 58 58 58 58 58 58 58 58 58 58 58 58 58 59 59 59 59 59 58 58 58 58 58 58 58 58 58 57 57 57 57 57 55 56 56 56 55
40 41 41 39 38 37 40 40 40 41 41 40 40 39 39 39 39 39 38 37 37 37 38 38 38 37 37 36 35 35 35 35 37 41 47 49 52 55 57 57 58 58 59 59 59 59 59 59 59 59 59 59 59 59 59 58 58 58 58 58 58 58 58 58 58 58 58 58 58 58 58 58 58 58 59 59 59 58 58 57 58 57 58 58 58 57 57 57 57 56 56 56 55 55 55 56 55
42 41 40 39 38 38 39 39 39 41 39 39 39 39 39 39 39 39 39 39 37 36 36 37 37 37 37 36 35 36 36 35 38 39 43 48 50 53 56 57 57 58 58 59 59 59 59 59 59 59 59 59 59 58 58 58 58 58 58 58 57 58 58 58 58 58 58 58 58 58 58 58 58 58 58 59 58 57 57 57 57 57 57 57 57 57 57 57 57 57 56 55 55 55 55 55 55
40 40 40 39 39 38 39 38 39 40 38 37 38 37 38 38 39 38 38 37 36 36 36 36 36 37 38 38 37 37 37 39 40 39 39 44 49 51 54 56 56 57 58 59 59 59 59 59 59 59 59 59 59 59 58 58 58 58 57 57 57 58 58 57 57 58 58 58 58 58 58 58 58 58 57 58 58 58 57 57 57 57 57 57 57 57 57 56 56 56 55 55 55 55 55 55 54
42 40 39 39 39 39 39 39 39 40 39 36 36 36 35 35 36 39 39 38 38 38 37 37 37 37 37 38 38 38 39 40 40 39 39 39 46 49 51 54 56 57 57 58 59 59 59 59 59 59 59 59 59 59 59 58 58 58 58 58 58 57 58 58 58 58 58 58 58 58 58 58 58 58 58 57 58 58 58 57 57 57 57 56 56 56 56 56 56 56 55 55 55 54 55 54 55
43 41 39 38 38 38 35 38 39 40 39 37 39 37 37 39 40 39 39 39 40 41 40 39 39 38 38 38 38 39 39 40 40 40 40 38 40 46 50 52 54 56 56 57 58 58 58 58 59 59 59 59 59 59 58 59 58 58 58 58 58 58 57 57 58 58 58 58 58 58 58 58 58 58 58 57 57 58 58 57 57 57 56 56 56 56 56 56 56 56 56 55 55 54 54 55 55
43 41 39 38 38 38 38 37 39 42 41 40 38 38 39 40 39 40 41 42 42 42 42 41 41 42 42 42 42 42 40 40 40 40 41 41 39 42 47 50 52 54 56 56 57 58 58 58 59 59 59 59 59 58 58 58 58 58 58 57 55 56 55 56 57 57 57 57 57 57 57 58 58 58 58 58 57 57 57 57 57 57 57 56 56 56 56 56 56 56 56 56 55 55 54 54 53
41 42 41 39 39 37 37 36 37 38 39 41 40 34 35 37 39 39 40 40 40 41 41 41 41 41 42 42 42 42 43 43 41 40 41 41 41 41 44 48 50 52 54 55 56 57 58 58 58 59 59 59 59 59 59 58 58 58 57 57 57 57 57 57 57 57 57 57 57 57 58 58 57 57 58 58 58 57 57 57 57 57 57 56 56 56 56 56 56 56 56 56 56 56 55 54 53
41 40 43 42 40 38 36 35 37 35 34 37 40 36 31 33 35 37 38 38 38 39 38 39 40 40 40 41 41 41 41 42 42 42 42 41 42 42 43 46 49 51 52 54 55 56 57 57 58 58 59 59 59 59 59 58 58 58 57 57 57 57 56 57 57 57 57 57 57 57 57 57 58 57 57 57 58 57 57 57 57 57 57 56 56 56 56 56 56 56 56 56 56 56 55 54 54
40 42 42 42 41 39 38 37 36 34 36 36 38 38 34 33 34 37 38 38 38 38 38 38 38 39 39 39 40 40 40 40 41 42 42 42 42 42 42 44 47 50 51 53 54 55 56 57 57 58 58 58 59 59 59 59 58 58 57 57 57 57 57 56 57 57 57 57 57 57 57 57 57 57 57 57 57 57 57 57 57 57 57 56 56 56 56 56 56 56 56 56 56 56 55 55 54
40 41 42 41 41 40 39 39 37 35 34 32 34 36 34 34 34 35 38 37 38 38 38 38 38 39 39 40 40 40 41 41 41 42 42 42 42 42 42 42 45 48 51 52 53 54 55 56 57 57 58 58 58 59 59 59 58 58 58 57 57 57 57 57 56 57 57 57 57 57 57 57 57 57 57 57 57 57 57 57 57 57 57 57 55 56 56 56 56 56 56 56 56 56 56 55 55
42 42 44 41 41 41 40 38 36 34 34 31 34 36 32 30 32 33 37 34 34 36 37 38 38 39 39 40 40 40 40 41 42 41 42 42 43 43 43 43 43 47 50 52 52 53 54 55 56 56 57 58 58 58 58 59 59 58 58 58 57 57 57 57 57 57 57 57 57 56 57 57 57 57 57 57 57 57 57 57 57 57 57 57 55 56 56 56 56 56 56 56 56 56 56 56 55
40 43 39 37 37 37 37 39 36 32 29 32 35 35 34 30 31 32 34 34 33 33 34 35 36 38 39 40 40 41 41 41 42 42 42 43 43 43 43 44 43 43 48 51 52 53 54 55 55 55 56 57 58 58 58 58 59 58 58 58 57 57 57 57 56 56 56 57 56 56 56 56 56 56 57 57 57 57 57 57 57 57 57 56 56 56 56 56 56 56 56 56 56 56 56 56 55
41 37 37 38 35 34 32 31 32 29 28 33 35 34 34 30 30 32 34 34 34 34 33 33 33 34 36 37 39 39 40 40 40 41 41 42 43 43 44 44 44 44 44 47 51 53 53 54 54 54 55 56 57 58 58 58 58 58 58 58 57 57 57 57 56 56 56 56 56 56 56 56 56 56 56 57 57 57 57 57 57 57 56 57 56 56 56 56 56 56 56 56 56 56 56 55 55
40 37 37 34 29 32 28 31 27 27 28 32 34 34 32 32 32 29 30 32 32 34 34 33 33 33 34 35 35 36 38 38 38 39 40 41 42 43 43 43 44 44 45 44 45 49 52 53 54 54 54 55 56 57 57 58 58 58 58 58 57 57 57 57 56 56 56 56 56 56 56 56 56 56 56 56 57 57 57 57 57 57 56 56 56 57 56 56 56 56 56 56 56 56 55 55 55
38 37 35 32 27 26 26 29 29 29 32 30 32 33 30 30 31 33 31 30 32 32 33 34 34 34 34 35 36 36 38 38 38 39 39 40 40 41 43 43 43 44 44 45 45 45 47 50 52 53 53 54 55 56 57 57 58 58 58 58 58 57 57 57 57 56 56 56 56 56 56 56 56 56 56 56 57 57 57 57 57 57 57 57 56 57 57 56 56 56 56 56 56 56 56 55 55
38 38 35 32 29 24 23 26 25 25 26 31 31 28 25 27 26 32 32 32 32 33 34 35 35 35 35 35 36 36 37 37 39 39 39 39 39 40 41 42 43 43 44 45 45 45 46 46 48 50 52 53 54 55 56 56 57 58 58 58 58 57 57 57 57 57 56 56 56 56 56 56 56 56 56 57 57 57 57 57 57 57 57 57 57 56 57 57 56 56 56 56 56 56 56 55 55
37 37 35 33 30 27 22 23 24 24 24 23 27 29 30 27 31 32 34 34 34 34 34 34 34 34 34 34 35 35 35 36 38 38 39 39 40 40 42 43 43 44 44 44 45 45 46 46 46 47 49 51 52 53 55 55 56 57 57 57 58 57 56 56 56 56 56 56 56 56 56 56 56 56 57 57 57 57 57 57 57 57 57 57 57 57 57 57 57 56 56 56 56 56 56 56 55
35 37 34 33 37 31 25 27 23 24 24 23 25 28 30 32 31 32 33 31 33 34 33 34 34 34 34 34 34 34 35 36 36 37 38 39 40 42 43 43 44 44 45 45 45 45 45 46 46 46 47 48 50 52 54 55 55 56 56 57 57 57 57 56 56 56 56 56 56 56 56 56 56 56 57 57 57 57 57 57 57 57 57 57 57 57 57 57 57 57 56 56 56 56 56 56 56
36 33 36 39 37 33 30 25 25 25 24 23 26 24 26 28 26 30 30 32 32 31 31 33 34 35 34 35 35 36 36 37 37 37 38 38 39 40 42 43 44 44 44 45 45 45 45 46 46 46 46 47 49 50 52 53 54 55 56 56 57 57 57 57 57 56 56 56 56 56 56 56 56 56 56 57 57 57 57 55 57 57 57 57 57 57 57 57 57 57 57 57 57 57 57 56 56
37 35 39 36 29 30 28 29 25 24 24 24 26 25 25 27 26 29 28 29 32 32 32 32 33 34 35 36 37 37 38 38 39 38 38 39 39 40 40 41 42 43 44 45 45 46 46 46 46 46 46 47 48 50 51 52 54 55 55 55 56 56 57 57 57 56 56 56 56 56 56 56 56 56 55 56 56 57 57 57 57 57 57 57 57 57 57 57 57 57 57 57 57 57 57 57 57
38 38 32 34 32 33 31 29 30 30 24 24 24 26 25 30 27 27 27 28 31 32 33 33 33 34 34 35 36 37 37 37 38 38 38 39 39 39 39 40 41 43 44 45 46 47 47 47 47 46 47 48 48 50 51 51 53 54 55 55 56 56 56 57 57 56 56 56 56 56 56 56 56 55 55 56 56 56 56 57 57 57 57 57 57 57 57 57 57 57 57 57 57 57 57 57 57
35 36 35 34 31 31 34 31 31 28 25 25 24 24 26 30 30 28 27 27 28 31 31 31 30 30 34 35 36 37 37 38 38 38 38 38 38 38 38 38 42 44 46 46 47 48 48 48 48 48 48 48 49 50 51 51 52 53 53 54 55 56 56 56 56 56 56 56 56 55 56 56 56 56 55 55 56 56 56 56 57 56 57 57 57 57 57 57 57 57 57 57 56 56 56 57 56
36 36 35 34 33 31 29 26 33 30 29 23 24 24 26 30 31 29 28 28 28 28 28 28 27 27 28 30 31 34 36 37 38 38 38 39 38 38 38 40 42 44 45 46 47 48 48 48 49 49 49 49 49 49 50 51 52 52 53 54 54 55 56 56 56 56 56 56 56 56 56 56 56 56 55 55 56 56 56 56 56 56 56 57 57 57 57 57 57 56 56 57 56 56 56 56 56